Coolidge Muni, Coolidge, AZ

5:38 PM MST on November 20, 2019 (GMT -0700)
Coolidge Muni, Coolidge

Weather History for KP08 - September, 2019

Change the Weather History Date:

Saturday, September 21, 2019

  Actual Average (KCGZ) Record (KCGZ)
Temperature  
Mean Temperature 78 °F -  
Max Temperature 91 °F 94 °F 102 °F (2001)
Min Temperature 66 °F 67 °F 57 °F (2004)
Cooling Degree Days 14    
Growing Degree Days 28 (Base 50)    
Moisture  
Dew Point 36 °F    
Average Humidity 22    
Maximum Humidity 46    
Minimum Humidity 13    
Precipitation  
Precipitation 0.00 in - - ()
Sea Level Pressure  
Sea Level Pressure 29.89 in    
Wind  
Wind Speed 6 mph ()    
Max Wind Speed 10 mph    
Max Gust Speed 20 mph    
Visibility 10.0 miles    
Events      
Averages and records for this station are not official NWS values.
T = Trace of Precipitation, MM = Missing Value Source: Averaged Metar Reports

Daily Weather History Graph

Daily Weather History Graph

Search for Another Location

Airport or City:

Astronomy

Sep. 21, 2019 Rise Set
Actual Time 6:13 AM MST 6:23 PM MST
Civil Twilight 5:48 AM MST 6:48 PM MST
Nautical Twilight 5:19 AM MST 7:17 PM MST
Astronomical Twilight 4:50 AM MST 7:46 PM MST
Moon 11:25 PM MST 1:02 PM MST
Length of Visible Light 13h 00m
Length of Day
12h 10m
Waning Gibbous, 53% of the Moon is Illuminated
Sep 21
Waning Gibbous
Sep 21
Last Quarter
Sep 28
New
Oct 5
First Quarter
Oct 13
Full

Hourly Weather History & Observations

Time (MST) Temp. Dew Point Humidity Pressure Visibility Wind Dir Wind Speed Gust Speed Precip Events Conditions
12:10 AM 75.2 °F 35.6 °F 24% 29.87 in 10.0 mi SSE 5.8 mph - N/A   Partly Cloudy
12:35 AM 75.2 °F 33.8 °F 22% 29.87 in 10.0 mi South 6.9 mph - N/A   Clear
12:55 AM 73.4 °F 33.8 °F 23% 29.87 in 10.0 mi SE 5.8 mph - N/A   Clear
1:15 AM 75.2 °F 33.8 °F 22% 29.88 in 10.0 mi South 8.1 mph - N/A   Clear
1:35 AM 73.4 °F 33.8 °F 23% 29.88 in 10.0 mi South 8.1 mph - N/A   Clear
1:55 AM 71.6 °F 33.8 °F 25% 29.88 in 10.0 mi SSE 9.2 mph - N/A   Clear
2:15 AM 75.2 °F 35.6 °F 24% 29.88 in 10.0 mi South 8.1 mph - N/A   Clear
2:35 AM 73.4 °F 37.4 °F 27% 29.88 in 10.0 mi South 8.1 mph - N/A   Clear
2:55 AM 73.4 °F 41.0 °F 31% 29.88 in 10.0 mi South 9.2 mph - N/A   Clear
3:15 AM 73.4 °F 42.8 °F 33% 29.88 in 10.0 mi South 8.1 mph - N/A   Clear
3:35 AM 71.6 °F 42.8 °F 35% 29.89 in 10.0 mi South 6.9 mph - N/A   Clear
3:55 AM 69.8 °F 42.8 °F 38% 29.89 in 10.0 mi South 8.1 mph - N/A   Clear
4:15 AM 71.6 °F 44.6 °F 38% 29.89 in 10.0 mi South 9.2 mph - N/A   Clear
4:55 AM 69.8 °F 46.4 °F 43% 29.91 in 10.0 mi South 4.6 mph - N/A   Clear
5:15 AM 68.0 °F 44.6 °F 43% 29.91 in 10.0 mi South 6.9 mph - N/A   Clear
5:35 AM 68.0 °F 46.4 °F 46% 29.91 in 10.0 mi South 9.2 mph - N/A   Clear
5:55 AM 68.0 °F 44.6 °F 43% 29.91 in 10.0 mi South 8.1 mph - N/A   Clear
6:15 AM 68.0 °F 44.6 °F 43% 29.91 in 10.0 mi South 6.9 mph - N/A   Clear
6:35 AM 66.2 °F 41.0 °F 40% 29.92 in 10.0 mi SE 8.1 mph - N/A   Clear
6:55 AM 68.0 °F 41.0 °F 37% 29.92 in 10.0 mi SE 8.1 mph - N/A   Clear
7:15 AM 71.6 °F 41.0 °F 33% 29.92 in 10.0 mi SE 5.8 mph - N/A   Clear
7:35 AM 73.4 °F 41.0 °F 31% 29.92 in 10.0 mi ESE 3.5 mph - N/A   Clear
7:55 AM 77.0 °F 41.0 °F 28% 29.93 in 10.0 mi Calm Calm - N/A   Clear
8:15 AM 80.6 °F 37.4 °F 21% 29.94 in 10.0 mi South 8.1 mph - N/A   Clear
8:35 AM 82.4 °F 35.6 °F 19% 29.94 in 10.0 mi South 6.9 mph - N/A   Clear
8:55 AM 82.4 °F 35.6 °F 19% 29.94 in 10.0 mi SSW 6.9 mph - N/A   Clear
9:15 AM 84.2 °F 35.6 °F 18% 29.95 in 10.0 mi SSW 5.8 mph - N/A   Clear
9:35 AM 84.2 °F 35.6 °F 18% 29.95 in 10.0 mi WSW 6.9 mph 13.8 mph N/A   Clear
9:55 AM 84.2 °F 33.8 °F 16% 29.95 in 10.0 mi WSW 8.1 mph - N/A   Clear
10:10 AM 84.2 °F 35.6 °F 18% 29.95 in 10.0 mi SW 6.9 mph - N/A   Clear
10:35 AM 86.0 °F 33.8 °F 15% 29.95 in 10.0 mi West 6.9 mph - N/A   Clear
10:55 AM 86.0 °F 30.2 °F 13% 29.94 in 10.0 mi SSW 6.9 mph - N/A   Clear
11:15 AM 87.8 °F 32.0 °F 14% 29.94 in 10.0 mi West 9.2 mph - N/A   Clear
11:35 AM 87.8 °F 32.0 °F 14% 29.94 in 10.0 mi Calm Calm 12.7 mph N/A   Clear
11:55 AM 87.8 °F 33.8 °F 15% 29.93 in 10.0 mi WSW 9.2 mph 17.3 mph N/A   Clear
12:15 PM 87.8 °F 35.6 °F 16% 29.92 in 10.0 mi South 4.6 mph - N/A   Clear
12:30 PM 91.4 °F 35.6 °F 14% 29.91 in 10.0 mi Variable 4.6 mph - N/A   Clear
12:55 PM 89.6 °F 35.6 °F 15% 29.91 in 10.0 mi WSW 9.2 mph 17.3 mph N/A   Clear
1:10 PM 91.4 °F 35.6 °F 14% 29.90 in 10.0 mi SW 10.4 mph 19.6 mph N/A   Clear
1:35 PM 89.6 °F 35.6 °F 15% 29.89 in 10.0 mi SW 10.4 mph - N/A   Clear
1:55 PM 91.4 °F 35.6 °F 14% 29.88 in 10.0 mi Variable 5.8 mph 16.1 mph N/A   Clear
2:15 PM 91.4 °F 33.8 °F 13% 29.87 in 10.0 mi NNW 8.1 mph - N/A   Clear
2:35 PM 91.4 °F 35.6 °F 14% 29.86 in 10.0 mi North 9.2 mph - N/A   Clear
3:15 PM 91.4 °F 35.6 °F 14% 29.85 in 10.0 mi NE 6.9 mph - N/A   Clear
3:35 PM 91.4 °F 35.6 °F 14% 29.84 in 10.0 mi West 9.2 mph - N/A   Clear
3:55 PM 91.4 °F 35.6 °F 14% 29.84 in 10.0 mi NW 9.2 mph - N/A   Clear
4:15 PM 91.4 °F 33.8 °F 13% 29.84 in 10.0 mi Variable 4.6 mph 13.8 mph N/A   Clear
4:35 PM 91.4 °F 33.8 °F 13% 29.83 in 10.0 mi North 6.9 mph - N/A   Clear
4:55 PM 91.4 °F 33.8 °F 13% 29.84 in 10.0 mi Calm Calm - N/A   Clear
5:15 PM 91.4 °F 33.8 °F 13% 29.84 in 10.0 mi NNW 4.6 mph - N/A   Clear
5:30 PM 91.4 °F 33.8 °F 13% 29.83 in 10.0 mi Variable 4.6 mph - N/A   Clear
5:55 PM 89.6 °F 32.0 °F 13% 29.83 in 10.0 mi NNW 5.8 mph - N/A   Clear
6:15 PM 89.6 °F 32.0 °F 13% 29.84 in 10.0 mi NNW 3.5 mph - N/A   Clear
6:35 PM 87.8 °F 32.0 °F 14% 29.84 in 10.0 mi North 4.6 mph - N/A   Clear
6:50 PM 86.0 °F 33.8 °F 15% 29.84 in 10.0 mi NW 5.8 mph - N/A   Clear
7:10 PM 84.2 °F 33.8 °F 16% 29.84 in 10.0 mi NNW 5.8 mph - N/A   Clear
7:30 PM 82.4 °F 33.8 °F 17% 29.85 in 10.0 mi North 6.9 mph - N/A   Clear
7:55 PM 82.4 °F 33.8 °F 17% 29.86 in 10.0 mi North 6.9 mph - N/A   Clear
8:15 PM 80.6 °F 35.6 °F 20% 29.86 in 10.0 mi North 5.8 mph - N/A   Clear
8:55 PM 78.8 °F 33.8 °F 20% 29.88 in 10.0 mi North 3.5 mph - N/A   Clear
9:15 PM 78.8 °F 33.8 °F 20% 29.89 in 10.0 mi North 5.8 mph - N/A   Clear
9:35 PM 78.8 °F 32.0 °F 18% 29.89 in 10.0 mi NNE 4.6 mph - N/A   Clear
9:55 PM 77.0 °F 32.0 °F 19% 29.90 in 10.0 mi NE 3.5 mph - N/A   Clear
10:15 PM 77.0 °F 30.2 °F 18% 29.90 in 10.0 mi ENE 5.8 mph - N/A   Clear
10:35 PM 77.0 °F 28.4 °F 17% 29.90 in 10.0 mi ENE 5.8 mph - N/A   Clear
10:55 PM 77.0 °F 28.4 °F 17% 29.90 in 10.0 mi East 6.9 mph - N/A   Clear
11:15 PM 75.2 °F 28.4 °F 18% 29.90 in 10.0 mi East 6.9 mph - N/A   Clear
11:35 PM 73.4 °F 28.4 °F 19% 29.90 in 10.0 mi ESE 6.9 mph - N/A   Clear
11:55 PM 71.6 °F 28.4 °F 20% 29.90 in 10.0 mi ESE 8.1 mph - N/A   Clear